Showing default

EWS-G3, 35491

Orbit data source: Space-Track

EWS-G3, 35491 is a payload satellite owned by NOAA (US) in GEO that was launched on Sat, 27 Jun 2009 UTC via a DELTA 4M+(4,2) launch vehicle from the Air Force Eastern Test Range (AFETR). Payload-class satellites include a variety of spacecraft equipped with specific instruments for various scientific and technological missions. These include communications satellites like Starlink; space stations such as the ISS; scientific satellites like the Hubble; Earth observation satellites from companies like Planet Labs, Umbra, and HawkEye 360; GPS; miniature CubeSats for education and research; and military/defense satellites.

Not visible in the next 10 days
Identifier
35491, 2009-033A
Orbit
GEO
Country
Flag of USUS
Related business
Manufacturer
Boeing/ES
Mission
On reserve Civil Weather
Bus & Motor
HS-601, R-4D?
Mass
3,209 kg wet, 1,543 kg dry
Launch date (UTC)
2009-06-27 (17 years ago)
Launch vehicle
DELTA 4M+(4,2)
Launch site
Air Force Eastern Test Range (AFETR)
Object type
Payload
Rocket body
Debris
Shape & HBR
Box + 1 Pan + 1 Ant, 15.0 m
Radar Cross Section
14.281 m², Large (>1 m²)

Expand to show TLE details & history
Last TLE update: 11 hours ago

TLE from 11 hours ago
0 EWS-G3
1 35491U 09033A   26237.18636387 -.00000257  00000-0  00000-0 0  9994
2 35491   1.8612  82.1282 0002250  69.3690 346.9137  1.00077519  7287
Epoch: 2026-08-25T04:28Z
TLE epoch observation values (Epoch: 2026-08-25T04:28:21.838Z)
Latitude
1.55775°
Longitude
97.84368°
Altitude
35,831.147 km
Speed
3.073 km/s
True Right ascension
09h 13m 34s
True Declination
1° 33' 22"
Sunlit
Object was in daylight at epoch
Visualization orbit readout
Latitude
Unknown
Longitude
Unknown
Altitude
Unknown
Speed
Unknown
Apparent Right ascension
Unknown
Apparent Declination
Unknown
Sunlit
N/A
Visualization observer readout
Local Sidereal Time
06:14:24
Azimuth
Unknown
Elevation
Unknown
Doppler factor
Unknown
Orbital elements
Apogee altitude
35,851.71 km
Perigee altitude
35,832.711 km
Semi-major axis
42,220.347 km
Eccentricity
0.00023
Inclination
1.8612°
RAAN
82.1282°
Arg. of periapsis
69.369°
True anomaly
346.90786°
Mean anomaly
346.9137°
Eccentric anomaly
346.91078°
Mean motion
0.25018 °/min
Orbital period
1,438.94 mins
BSTAR
0
Loading maneuver chart data...
Computing Atmospheric mass density...
Loading historical data...
Loading historical data...
Loading historical data...
Loading historical data...
Loading historical data...
Loading historical data...
Loading historical data...
Other satellites on launch #33 in the year 2009 (2009-06-27 UTC)

Documentation

Showing up to 5 results
|